[[{"header":{"parameterUnit":"m.s-1","parameterCategory":2,"la1":30.2991,"la2":30.254,"lo1":-89.0895,"lo2":-89.0444,"dy":0.0017,"dx":0.0017,"nx":28,"ny":28,"refTime":"2024-11-26T03:00:00:Z","depth":"0","parameterNumber":2,"parameterNumberName":"U-component_of_CURRENTS"},"data":[0,0,0,0,0,0,0,0,0,0,0,0,0,0,0,0,0,0,0,0,0,0,0,0,0,0,0,0,0,0,0,0,0,0,0,0,0,0,0,0,0,0,0,0,0,0,0,0,0,0,0,0,0,0,0,0,0,0,-0.2791,-0.2792,0,-0.2842,-0.2842,-0.2842,-0.2862,-0.2862,-0.2862,-0.2863,-0.2873,-0.2873,-0.2874,0,0,0,0,0,0,0,0,0,0,0,0,0,-0.2733,-0.2734,-0.2791,-0.2792,-0.2793,-0.2841,-0.2842,-0.2842,-0.2862,-0.2862,-0.2862,-0.2863,-0.2873,-0.2873,-0.2874,0,0,0,0,0,0,0,0,0,0,0,0,0,-0.2766,-0.2734,-0.2791,-0.2811,-0.2813,-0.2841,-0.2842,-0.2842,-0.2862,-0.2862,-0.2862,-0.2863,-0.2873,-0.2873,-0.2874,-0.2872,0,0,-0.2874,-0.2874,0,0,0,0,0,0,0,0,-0.2764,-0.2768,-0.2807,-0.281,-0.2812,-0.2848,-0.2826,-0.2851,-0.2862,-0.2841,-0.2863,-0.2863,-0.2863,-0.2864,-0.287,-0.2872,-0.2873,-0.2874,-0.2875,-0.2875,-0.2875,0,0,0,0,0,0,0,-0.2762,-0.2766,-0.2809,-0.2808,-0.2811,-0.2824,-0.2829,-0.2831,-0.2847,-0.2843,-0.2845,-0.2855,-0.2864,-0.2869,-0.287,-0.2873,-0.2874,-0.2875,-0.2875,-0.2875,-0.2879,-0.2879,0,0,0,0,0,0,-0.276,-0.2763,-0.2807,-0.281,-0.2791,-0.2825,-0.283,-0.2834,-0.2848,-0.2852,-0.2854,-0.2855,-0.2869,-0.287,-0.287,-0.2869,-0.2875,-0.2875,-0.2875,-0.2879,-0.2879,-0.2879,0,0,0,0,0,0,-0.2758,-0.2763,-0.2805,-0.279,-0.2797,-0.2826,-0.2831,-0.2835,-0.2844,-0.2858,-0.286,-0.286,-0.2869,-0.287,-0.2873,-0.287,-0.2875,-0.2875,-0.2879,-0.2879,-0.2879,-0.2867,0,0,0,0,0,0,-0.2756,-0.2762,-0.2759,-0.279,-0.2798,-0.2821,-0.2831,-0.2836,-0.2851,-0.2853,-0.2863,-0.2865,-0.2869,-0.2872,-0.2873,-0.287,-0.2875,-0.2879,-0.2879,-0.2879,-0.2867,-0.2866,-0.2865,0,0,0,0,0,-0.2754,-0.2756,-0.2758,-0.2764,-0.2795,-0.2821,-0.2826,-0.2846,-0.2851,-0.2854,-0.2861,-0.2864,-0.2872,-0.2872,-0.2873,-0.2871,-0.2879,-0.2879,-0.2879,-0.2867,-0.2866,-0.2865,0,0,0,0,0,0,-0.2733,-0.2759,-0.2763,-0.2773,-0.2793,-0.2826,-0.2834,-0.2846,-0.2854,-0.2856,-0.2863,-0.2865,-0.2865,-0.287,-0.287,-0.2872,-0.2876,-0.2876,-0.2867,-0.2866,-0.2865,-0.2844,-0.2876,0,0,0,0,0,-0.2725,-0.273,-0.276,-0.2766,-0.2778,-0.2804,-0.2816,-0.2831,-0.2847,-0.2852,-0.2858,-0.2863,-0.2865,-0.2867,-0.287,-0.2871,-0.284,-0.287,-0.2869,-0.2869,-0.2852,-0.2806,-0.2798,-0.2878,-0.2878,-0.2878,0,0,-0.2719,-0.2735,-0.2737,-0.2761,-0.278,-0.2803,-0.2811,-0.2834,-0.2841,-0.285,-0.2856,-0.2859,-0.2864,-0.2865,-0.2866,-0.2869,-0.2829,-0.2868,-0.2868,-0.2851,-0.2804,-0.2796,-0.2789,-0.2878,-0.2878,-0.2878,0,0,-0.2729,-0.2724,-0.2743,-0.276,-0.2791,-0.28,-0.2806,-0.2836,-0.2834,-0.2843,-0.2849,-0.284,-0.2856,-0.2848,-0.2849,-0.2842,-0.2825,-0.2858,-0.2836,-0.2792,-0.2784,-0.2777,-0.2722,-0.271,-0.2859,-0.2859,-0.2859,0,-0.2728,-0.2753,-0.2752,-0.2782,-0.2797,-0.2799,-0.2828,-0.2824,-0.2846,-0.2837,-0.2843,-0.2835,-0.284,-0.2823,-0.2827,-0.2837,-0.2811,-0.2841,-0.2789,-0.2781,-0.2774,-0.2719,-0.2706,-0.2858,-0.2858,-0.2858,-0.2858,0,-0.2758,-0.2781,-0.2795,-0.2824,-0.283,-0.2856,-0.2854,-0.2847,-0.2842,-0.2838,-0.2815,-0.2807,-0.2802,-0.2805,-0.2817,-0.2778,-0.2775,-0.2791,-0.2787,-0.2765,-0.2709,-0.2695,-0.2857,-0.2857,-0.2858,-0.2858,0,0,-0.2757,-0.2811,-0.2817,-0.2839,-0.2858,-0.2867,-0.2859,-0.2853,-0.2836,-0.2824,-0.2794,-0.2787,-0.2772,-0.277,-0.2772,-0.2733,-0.2664,-0.2746,-0.2744,-0.2683,-0.2557,-0.2524,-0.2507,-0.2678,-0.2676,-0.2674,-0.2535,0,-0.2792,-0.286,-0.2864,-0.2902,-0.2934,-0.2916,-0.2905,-0.2885,-0.2855,-0.2817,-0.2774,-0.2751,-0.2761,-0.2755,-0.2715,-0.2681,-0.263,-0.2699,-0.2594,-0.259,-0.2557,-0.249,-0.2494,-0.2368,-0.2522,-0.252,-0.2518,0,-0.2822,-0.2865,-0.2926,-0.2947,-0.2954,-0.2961,-0.2924,-0.2914,-0.2849,-0.2819,-0.2769,-0.274,-0.2677,-0.2689,-0.2582,-0.2631,-0.259,-0.2553,-0.2547,-0.2507,-0.2532,-0.2418,-0.2338,-0.2288,-0.2497,-0.2499,-0.25,0,-0.2831,-0.2896,-0.2943,-0.2958,-0.2982,-0.2979,-0.2968,-0.2918,-0.2879,-0.281,-0.276,-0.2699,-0.2636,-0.2584,-0.2505,-0.255,-0.2369,-0.2425,-0.2343,-0.234,-0.2314,-0.2313,-0.2164,-0.233,-0.2331,-0.2331,-0.2332,0,-0.2867,-0.2895,-0.2953,-0.298,-0.2982,-0.2997,-0.2964,-0.2931,-0.2873,-0.2811,-0.276,-0.2684,-0.2606,-0.2501,-0.2467,-0.2337,-0.2333,-0.2305,-0.2291,-0.2311,-0.2311,-0.2246,-0.2202,-0.2326,-0.2327,-0.2328,-0.2329,0,-0.2856,-0.2916,-0.295,-0.2992,-0.299,-0.2982,-0.2944,-0.2903,-0.2866,-0.2776,-0.2749,-0.2637,-0.2513,-0.2413,-0.2294,-0.226,-0.2106,-0.2125,-0.2142,-0.2133,-0.2054,-0.201,-0.1788,-0.1734,-0.2028,-0.2027,-0.2025,0,-0.2855,-0.2884,-0.2928,-0.2912,-0.2925,-0.2918,-0.2885,-0.288,-0.2836,-0.2747,-0.2689,-0.2554,-0.2462,-0.2247,-0.2162,-0.205,-0.1991,-0.1963,-0.2053,-0.2009,-0.195,-0.1924,-0.1894,-0.201,-0.2009,-0.2008,-0.2007,0,-0.2794,-0.2813,-0.2817,-0.2804,-0.2787,-0.2791,-0.2767,-0.2754,-0.2738,-0.2669,-0.2587,-0.2529,-0.2361,-0.2232,-0.2057,-0.2001,-0.19,-0.1936,-0.1883,-0.1895,-0.186,-0.1818,-0.2138,-0.1996,-0.1997,-0.1998,-0.1998,-0.1999,-0.2677,-0.2649,-0.2632,-0.2589,-0.2598,-0.2613,-0.2493,-0.2533,-0.2473,-0.2273,-0.2459,-0.2201,-0.2228,-0.2015,-0.1973,-0.1835,-0.1819,-0.1797,-0.1736,-0.1706,-0.1675,-0.1958,-0.1814,-0.1814,-0.1814,-0.1814,-0.1814,0,-0.2442,-0.241,-0.2389,-0.2307,-0.2226,-0.2337,-0.231,-0.2146,-0.1995,-0.1954,-0.1879,-0.1776,-0.1796,-0.1747,-0.1733,-0.1653,-0.1659,-0.157,-0.155,-0.1524,-0.1774,-0.18,-0.1656,-0.1656,-0.1656,-0.1656,-0.1656,-0.1656,-0.2293,-0.2155,-0.214,-0.1908,-0.1866,-0.1675,-0.1614,-0.15,-0.1377,-0.113,-0.0904,-0.0884,-0.1044,-0.1315,-0.14,-0.1416,-0.1339,-0.1313,-0.1245,-0.1461,-0.148,-0.1498,-0.1515,-0.1313,-0.1313,-0.105,-0.1047,-0.1045]},{"header":{"parameterUnit":"m.s-1","parameterCategory":2,"la1":30.2991,"la2":30.254,"lo1":-89.0895,"lo2":-89.0444,"dy":0.0017,"dx":0.0017,"nx":28,"ny":28,"refTime":"2024-11-26T03:00:00:Z","depth":"0","parameterNumber":3,"parameterNumberName":"V-component_of_CURRENTS"},"data":[0,0,0,0,0,0,0,0,0,0,0,0,0,0,0,0,0,0,0,0,0,0,0,0,0,0,0,0,0,0,0,0,0,0,0,0,0,0,0,0,0,0,0,0,0,0,0,0,0,0,0,0,0,0,0,0,0,0,-0.0262,-0.0263,0,-0.0316,-0.0317,-0.0318,-0.0357,-0.0358,-0.0358,-0.0358,-0.0403,-0.0404,-0.0405,0,0,0,0,0,0,0,0,0,0,0,0,0,-0.0204,-0.0205,-0.0262,-0.0263,-0.0263,-0.0316,-0.0317,-0.0318,-0.0357,-0.0358,-0.0358,-0.0358,-0.0403,-0.0404,-0.0405,0,0,0,0,0,0,0,0,0,0,0,0,0,-0.0242,-0.0205,-0.0262,-0.0288,-0.0291,-0.0316,-0.0317,-0.0318,-0.0357,-0.0358,-0.0358,-0.0358,-0.0402,-0.0404,-0.0405,-0.0408,0,0,-0.041,-0.041,0,0,0,0,0,0,0,0,-0.024,-0.0244,-0.0284,-0.0286,-0.029,-0.0329,-0.0313,-0.0347,-0.0357,-0.0334,-0.0358,-0.0358,-0.0376,-0.038,-0.0391,-0.041,-0.0412,-0.041,-0.0411,-0.0411,-0.0412,0,0,0,0,0,0,0,-0.0237,-0.0242,-0.0285,-0.0284,-0.0288,-0.0301,-0.0307,-0.032,-0.0353,-0.0336,-0.0338,-0.0342,-0.0378,-0.039,-0.0393,-0.0412,-0.041,-0.0411,-0.0412,-0.0413,-0.0417,-0.0416,0,0,0,0,0,0,-0.0227,-0.024,-0.0283,-0.0286,-0.0263,-0.0301,-0.0308,-0.0317,-0.0353,-0.0359,-0.0342,-0.0344,-0.0387,-0.0391,-0.0394,-0.037,-0.0411,-0.0413,-0.0414,-0.0417,-0.0416,-0.0415,0,0,0,0,0,0,-0.0225,-0.023,-0.0281,-0.0263,-0.027,-0.0302,-0.0312,-0.0318,-0.0331,-0.0358,-0.0364,-0.0348,-0.0388,-0.0392,-0.0402,-0.0373,-0.0413,-0.0415,-0.0418,-0.0417,-0.0416,-0.0339,0,0,0,0,0,0,-0.0224,-0.023,-0.0236,-0.0262,-0.0271,-0.0291,-0.0312,-0.0319,-0.0332,-0.0335,-0.0365,-0.037,-0.0388,-0.04,-0.0404,-0.0376,-0.0416,-0.0419,-0.0418,-0.0416,-0.0343,-0.0336,-0.033,0,0,0,0,0,-0.0221,-0.0243,-0.0236,-0.0241,-0.0277,-0.029,-0.0296,-0.032,-0.0332,-0.0334,-0.0353,-0.0369,-0.0393,-0.0401,-0.0405,-0.0377,-0.042,-0.0418,-0.0416,-0.0346,-0.0337,-0.033,0,0,0,0,0,0,-0.0235,-0.0249,-0.0242,-0.0269,-0.0269,-0.0296,-0.0311,-0.0317,-0.0335,-0.0342,-0.0365,-0.037,-0.0366,-0.0386,-0.0394,-0.0374,-0.0406,-0.0405,-0.0351,-0.0343,-0.0337,-0.0329,-0.0417,0,0,0,0,0,-0.0233,-0.0246,-0.025,-0.0269,-0.027,-0.0284,-0.0294,-0.0302,-0.032,-0.033,-0.0343,-0.0358,-0.0363,-0.0365,-0.0378,-0.037,-0.0366,-0.0354,-0.0348,-0.0342,-0.0339,-0.0312,-0.0302,-0.041,-0.041,-0.041,0,0,-0.0246,-0.0253,-0.0263,-0.0271,-0.0279,-0.0276,-0.0292,-0.0305,-0.0294,-0.0331,-0.0327,-0.0338,-0.0358,-0.0347,-0.0346,-0.0359,-0.0304,-0.0339,-0.0334,-0.0335,-0.0309,-0.0298,-0.0289,-0.0408,-0.0409,-0.0409,0,0,-0.0277,-0.0278,-0.0293,-0.0283,-0.0283,-0.0282,-0.0279,-0.0288,-0.0283,-0.0277,-0.0295,-0.0283,-0.0304,-0.0295,-0.0298,-0.0262,-0.0273,-0.0271,-0.0227,-0.0199,-0.0189,-0.0181,-0.0136,-0.0125,-0.0263,-0.0263,-0.0263,0,-0.0293,-0.0303,-0.0299,-0.0297,-0.0289,-0.0278,-0.0276,-0.0264,-0.027,-0.0256,-0.0268,-0.0262,-0.0271,-0.0243,-0.023,-0.0242,-0.0234,-0.0253,-0.0188,-0.018,-0.0173,-0.0129,-0.0117,-0.0259,-0.026,-0.026,-0.0261,0,-0.0326,-0.0318,-0.0326,-0.031,-0.0296,-0.0296,-0.0264,-0.0244,-0.0231,-0.0217,-0.0186,-0.0188,-0.0183,-0.0174,-0.0194,-0.0144,-0.0155,-0.0184,-0.0204,-0.0157,-0.0114,-0.0103,-0.0254,-0.0255,-0.0256,-0.0257,0,0,-0.0417,-0.0359,-0.0364,-0.0337,-0.0299,-0.0295,-0.0251,-0.0213,-0.0185,-0.0161,-0.0125,-0.0105,-0.01,-0.0103,-0.0108,-0.0077,-0.0003,-0.0109,-0.0109,-0.0056,0.0069,0.0041,0.005,-0.0028,-0.0027,-0.0025,0.0088,0,-0.0447,-0.0434,-0.0394,-0.0366,-0.0352,-0.0294,-0.0253,-0.0207,-0.0167,-0.0125,-0.0087,-0.0067,-0.0073,-0.0069,-0.0032,-0.0028,0.0024,-0.003,0.0007,0.0009,-0.0015,0.0061,0.0023,0.0118,0.0099,0.0101,0.0102,0,-0.0512,-0.0479,-0.046,-0.0372,-0.0362,-0.0338,-0.0263,-0.0221,-0.014,-0.0107,-0.0056,-0.0037,0.0022,0.0,0.0079,0.0037,0.0065,0.0081,0.0084,0.0035,0.0,0.0061,0.0138,0.0245,0.0118,0.0117,0.0116,0,-0.0602,-0.0534,-0.0515,-0.049,-0.0393,-0.0365,-0.0315,-0.0231,-0.0188,-0.0101,-0.0071,0.0006,0.003,0.0082,0.0124,0.0098,0.0205,0.0174,0.0192,0.0191,0.0154,0.0146,0.0342,0.0247,0.0247,0.0247,0.0246,0,-0.0674,-0.0658,-0.0554,-0.0545,-0.0506,-0.0419,-0.0374,-0.0307,-0.0213,-0.0164,-0.008,-0.0036,0.0044,0.0111,0.0152,0.0212,0.0236,0.0222,0.0222,0.0181,0.0175,0.0257,0.0329,0.0251,0.025,0.0249,0.0249,0,-0.0793,-0.0731,-0.0694,-0.0586,-0.0555,-0.0534,-0.0422,-0.0381,-0.0285,-0.0216,-0.0191,-0.0065,0.0026,0.0118,0.0212,0.0236,0.0362,0.0318,0.0275,0.0267,0.0354,0.043,0.0618,0.0672,0.0361,0.0361,0.0361,0,-0.0854,-0.0848,-0.0748,-0.0721,-0.0677,-0.0617,-0.0574,-0.045,-0.0397,-0.0242,-0.0219,-0.0096,-0.0001,0.0151,0.0203,0.0305,0.0402,0.0335,0.0278,0.0382,0.0468,0.0515,0.0551,0.0281,0.028,0.028,0.028,0,-0.0943,-0.0911,-0.0871,-0.0808,-0.0766,-0.0701,-0.0623,-0.0573,-0.0422,-0.0311,-0.0168,-0.0073,0.0016,0.0122,0.0233,0.0269,0.0414,0.0325,0.0448,0.0446,0.0497,0.0538,0.0201,0.0275,0.0275,0.0276,0.0276,0.0276,-0.1004,-0.0997,-0.0926,-0.0861,-0.081,-0.0722,-0.0604,-0.0508,-0.0349,-0.0075,-0.0095,0.016,0.0142,0.0281,0.0275,0.0344,0.0394,0.04,0.0496,0.0543,0.0566,0.0225,0.0275,0.0275,0.0275,0.0276,0.0276,0,-0.1039,-0.1001,-0.096,-0.0846,-0.0748,-0.0717,-0.0569,-0.0393,-0.0133,0.0048,0.0252,0.0471,0.0494,0.0483,0.0492,0.0544,0.0529,0.0615,0.0693,0.0728,0.0434,0.0398,0.0456,0.0456,0.0456,0.0456,0.0456,0.0455,-0.1049,-0.1011,-0.0961,-0.0772,-0.067,-0.0444,-0.0302,-0.0071,0.0131,0.0528,0.0797,0.0925,0.0954,0.0889,0.0898,0.0851,0.0991,0.0944,0.1066,0.0874,0.0862,0.0849,0.0832,0.098,0.0981,0.129,0.1294,0.1296]}],[{"header":{"parameterUnit":"m.s-1","parameterCategory":2,"la1":30.2991,"la2":30.254,"lo1":-89.0895,"lo2":-89.0444,"dy":0.0017,"dx":0.0017,"nx":28,"ny":28,"refTime":"2024-11-26T03:00:00:Z","depth":"2","parameterNumber":2,"parameterNumberName":"U-component_of_CURRENTS"},"data":[0,0,0,0,0,0,0,0,0,0,0,0,0,0,0,0,0,0,0,0,0,0,0,0,0,0,0,0,0,0,0,0,0,0,0,0,0,0,0,0,0,0,0,0,0,0,0,0,0,0,0,0,0,0,0,0,0,0,-0.2479,-0.2479,0,-0.2418,-0.2417,-0.2416,-0.2331,-0.2331,-0.233,-0.2329,-0.2221,-0.2219,-0.2217,0,0,0,0,0,0,0,0,0,0,0,0,0,-0.2334,-0.2338,-0.2479,-0.2479,-0.2479,-0.2418,-0.2417,-0.2415,-0.2331,-0.2331,-0.233,-0.2329,-0.2222,-0.2219,-0.2216,0,0,0,0,0,0,0,0,0,0,0,0,0,-0.2341,-0.2339,-0.2479,-0.2435,-0.2431,-0.2419,-0.2417,-0.2415,-0.2332,-0.233,-0.2329,-0.2328,-0.2222,-0.2219,-0.2216,-0.2218,0,0,-0.2206,-0.2204,0,0,0,0,0,0,0,0,-0.2341,-0.2345,-0.2442,-0.2438,-0.2434,-0.2388,-0.2326,-0.2349,-0.2332,-0.2361,-0.2329,-0.2328,-0.2278,-0.227,-0.2251,-0.2213,-0.2208,-0.2206,-0.2204,-0.2202,-0.2201,0,0,0,0,0,0,0,-0.2341,-0.2346,-0.2447,-0.2442,-0.2437,-0.2355,-0.2355,-0.2329,-0.232,-0.2359,-0.2354,-0.236,-0.2274,-0.2254,-0.2248,-0.2206,-0.2206,-0.2203,-0.2201,-0.2199,-0.2221,-0.2223,0,0,0,0,0,0,-0.2376,-0.2348,-0.2449,-0.2446,-0.2392,-0.236,-0.236,-0.2397,-0.2321,-0.2311,-0.2361,-0.2357,-0.2261,-0.2252,-0.2244,-0.2272,-0.2202,-0.2199,-0.2197,-0.2218,-0.2221,-0.2224,0,0,0,0,0,0,-0.2373,-0.2386,-0.2452,-0.2398,-0.2402,-0.2366,-0.2407,-0.2397,-0.239,-0.2325,-0.2312,-0.2367,-0.2259,-0.2248,-0.2233,-0.2265,-0.2198,-0.2195,-0.2215,-0.2219,-0.2223,-0.2308,0,0,0,0,0,0,-0.237,-0.2387,-0.242,-0.2403,-0.2407,-0.2469,-0.2408,-0.2397,-0.2398,-0.2391,-0.2325,-0.2313,-0.2258,-0.2239,-0.223,-0.226,-0.2192,-0.2212,-0.2217,-0.2221,-0.2302,-0.2314,-0.2325,0,0,0,0,0,-0.2365,-0.2418,-0.2423,-0.2435,-0.2458,-0.2472,-0.2466,-0.2428,-0.24,-0.2413,-0.2361,-0.2316,-0.2264,-0.2238,-0.2227,-0.2256,-0.221,-0.2215,-0.2221,-0.2297,-0.2312,-0.2324,0,0,0,0,0,0,-0.2349,-0.2415,-0.2419,-0.2485,-0.2492,-0.2461,-0.2469,-0.2447,-0.2416,-0.2404,-0.2334,-0.2319,-0.2324,-0.2289,-0.2262,-0.2283,-0.2236,-0.224,-0.2297,-0.2311,-0.2322,-0.231,-0.2189,0,0,0,0,0,-0.2374,-0.2448,-0.2468,-0.2519,-0.253,-0.2505,-0.2504,-0.2485,-0.2458,-0.2443,-0.2399,-0.2361,-0.234,-0.2323,-0.23,-0.2302,-0.2236,-0.2322,-0.2334,-0.2343,-0.2331,-0.2277,-0.2281,-0.2243,-0.2243,-0.2243,0,0,-0.2376,-0.2427,-0.2463,-0.2524,-0.252,-0.2543,-0.25,-0.2515,-0.2517,-0.2438,-0.2427,-0.2401,-0.2354,-0.2354,-0.2355,-0.2325,-0.2321,-0.2351,-0.2359,-0.2341,-0.2283,-0.2286,-0.2288,-0.2247,-0.2246,-0.2245,0,0,-0.2426,-0.2472,-0.2547,-0.2565,-0.2596,-0.258,-0.2597,-0.2586,-0.2566,-0.2565,-0.2511,-0.2503,-0.2469,-0.2436,-0.2415,-0.2481,-0.2389,-0.2492,-0.2525,-0.2473,-0.2474,-0.2475,-0.2387,-0.2379,-0.2489,-0.249,-0.249,0,-0.242,-0.2524,-0.2559,-0.2618,-0.2627,-0.2607,-0.2641,-0.2626,-0.2606,-0.2586,-0.2579,-0.2525,-0.2504,-0.2477,-0.251,-0.2503,-0.2442,-0.247,-0.2483,-0.2482,-0.2481,-0.2391,-0.2381,-0.2494,-0.2494,-0.2493,-0.2493,0,-0.2522,-0.2587,-0.2623,-0.2702,-0.2711,-0.274,-0.2729,-0.2726,-0.2704,-0.2676,-0.2658,-0.2621,-0.2578,-0.2597,-0.2573,-0.2565,-0.2514,-0.2506,-0.2438,-0.2489,-0.2392,-0.238,-0.2501,-0.25,-0.2498,-0.2497,0,0,-0.2546,-0.2673,-0.2685,-0.2707,-0.2754,-0.2756,-0.2773,-0.2764,-0.2737,-0.2733,-0.2692,-0.2699,-0.2664,-0.2641,-0.2613,-0.2585,-0.2546,-0.2552,-0.2547,-0.2444,-0.2395,-0.2232,-0.2202,-0.2534,-0.2533,-0.2532,-0.2325,0,-0.2604,-0.2727,-0.2771,-0.2819,-0.2854,-0.2835,-0.2835,-0.2815,-0.2785,-0.2742,-0.2706,-0.2665,-0.2683,-0.2654,-0.2638,-0.2565,-0.2519,-0.26,-0.2377,-0.2369,-0.2202,-0.2185,-0.2069,-0.1865,-0.2312,-0.231,-0.2309,0,-0.2688,-0.2753,-0.2839,-0.2855,-0.2864,-0.2876,-0.2835,-0.2833,-0.2778,-0.275,-0.2711,-0.2662,-0.2622,-0.2629,-0.2516,-0.2562,-0.249,-0.2435,-0.2425,-0.2229,-0.2183,-0.189,-0.1824,-0.2287,-0.2289,-0.229,-0.2292,0,-0.2683,-0.278,-0.2843,-0.2859,-0.2888,-0.2884,-0.2874,-0.2835,-0.2782,-0.2739,-0.2672,-0.2636,-0.2552,-0.251,-0.239,-0.2457,-0.2221,-0.2294,-0.2068,-0.2054,-0.1886,-0.1859,-0.2199,-0.2199,-0.2199,-0.22,-0.2201,0,-0.2728,-0.2755,-0.2841,-0.2864,-0.2844,-0.2882,-0.2829,-0.2809,-0.2754,-0.2646,-0.2663,-0.2534,-0.2517,-0.2371,-0.2338,-0.2114,-0.2166,-0.2041,-0.1984,-0.1913,-0.1891,-0.2214,-0.2218,-0.2192,-0.2194,-0.2195,-0.2197,0,-0.2682,-0.2782,-0.2799,-0.2844,-0.2845,-0.2813,-0.2757,-0.2695,-0.2687,-0.2541,-0.2512,-0.2412,-0.2232,-0.2153,-0.2013,-0.1971,-0.1833,-0.1735,-0.1625,-0.1559,-0.1729,-0.1742,-0.1514,-0.1506,-0.15,-0.1495,-0.149,0,-0.2666,-0.2693,-0.2731,-0.2697,-0.2705,-0.2676,-0.2622,-0.2637,-0.2553,-0.2421,-0.2312,-0.2132,-0.1921,-0.1649,-0.1547,-0.1391,-0.1547,-0.1221,-0.1355,-0.1689,-0.1656,-0.1679,-0.1699,-0.1168,-0.1161,-0.1156,-0.1151,0,-0.2531,-0.2556,-0.2548,-0.2514,-0.2473,-0.2418,-0.236,-0.2304,-0.2274,-0.2163,-0.1949,-0.1789,-0.1504,-0.1266,-0.1069,-0.1,-0.1263,-0.1101,-0.1433,-0.1361,-0.1346,-0.132,-0.1355,-0.1102,-0.1107,-0.111,-0.1113,-0.1115,-0.2343,-0.2295,-0.2288,-0.2229,-0.22,-0.2125,-0.2016,-0.1978,-0.1846,-0.1644,-0.1614,-0.135,-0.1206,-0.0839,-0.0726,-0.0697,-0.0814,-0.0857,-0.0882,-0.0911,-0.0909,-0.0883,-0.055,-0.0552,-0.0553,-0.0555,-0.0556,0,-0.2032,-0.2025,-0.1977,-0.19,-0.1801,-0.1879,-0.1778,-0.164,-0.1453,-0.1356,-0.1169,-0.0868,-0.0669,-0.0595,-0.0452,-0.0392,-0.0476,-0.0412,-0.0566,-0.0609,-0.065,-0.0647,-0.0212,-0.0211,-0.0211,-0.0211,0,0,-0.184,-0.1707,-0.1722,-0.151,-0.148,-0.1298,-0.1226,-0.1096,-0.0998,-0.0765,-0.0663,-0.0621,-0.0556,-0.0401,-0.0319,-0.0267,-0.0456,-0.0241,-0.0505,-0.0728,-0.0769,-0.0869,-0.0904,0,0,0,0,0]},{"header":{"parameterUnit":"m.s-1","parameterCategory":2,"la1":30.2991,"la2":30.254,"lo1":-89.0895,"lo2":-89.0444,"dy":0.0017,"dx":0.0017,"nx":28,"ny":28,"refTime":"2024-11-26T03:00:00:Z","depth":"2","parameterNumber":3,"parameterNumberName":"V-component_of_CURRENTS"},"data":[0,0,0,0,0,0,0,0,0,0,0,0,0,0,0,0,0,0,0,0,0,0,0,0,0,0,0,0,0,0,0,0,0,0,0,0,0,0,0,0,0,0,0,0,0,0,0,0,0,0,0,0,0,0,0,0,0,0,0.0055,0.0055,0,0.013,0.0131,0.0133,0.0193,0.0193,0.0193,0.0193,0.0349,0.0353,0.0357,0,0,0,0,0,0,0,0,0,0,0,0,0,0.0059,0.0058,0.0055,0.0055,0.0056,0.013,0.0132,0.0133,0.0192,0.0193,0.0193,0.0193,0.0348,0.0353,0.0357,0,0,0,0,0,0,0,0,0,0,0,0,0,0.0091,0.0058,0.0055,0.0092,0.0096,0.013,0.0132,0.0133,0.0192,0.0193,0.0193,0.0194,0.0347,0.0352,0.0358,0.0385,0,0,0.0376,0.0378,0,0,0,0,0,0,0,0,0.0089,0.0091,0.0086,0.009,0.0094,0.015,0.019,0.022,0.0192,0.0159,0.0193,0.0194,0.0288,0.0298,0.0315,0.0393,0.0399,0.0376,0.038,0.0382,0.0384,0,0,0,0,0,0,0,0.0086,0.0089,0.0088,0.0087,0.0091,0.0138,0.0143,0.0196,0.0224,0.0162,0.0166,0.0169,0.0291,0.0309,0.0319,0.0402,0.0376,0.0381,0.0385,0.0387,0.0454,0.0452,0,0,0,0,0,0,0.0064,0.0086,0.0086,0.009,0.0089,0.0137,0.0142,0.0134,0.0222,0.0234,0.0168,0.0171,0.0299,0.0312,0.0325,0.0333,0.0382,0.0388,0.0391,0.0456,0.0454,0.0452,0,0,0,0,0,0,0.0064,0.0063,0.0082,0.0088,0.0093,0.0135,0.0126,0.0135,0.0143,0.0225,0.024,0.0165,0.03,0.0317,0.0359,0.0341,0.039,0.0396,0.0458,0.0455,0.0453,0.0369,0,0,0,0,0,0,0.0064,0.0062,0.005,0.0086,0.0092,0.009,0.0126,0.0136,0.0143,0.0147,0.0227,0.0243,0.0302,0.0349,0.0364,0.035,0.04,0.046,0.0456,0.0453,0.0374,0.0364,0.0355,0,0,0,0,0,0.0063,0.0038,0.0049,0.0049,0.0072,0.0089,0.0096,0.0132,0.0142,0.0141,0.0191,0.024,0.0339,0.0353,0.0371,0.0358,0.0461,0.0457,0.0454,0.0378,0.0366,0.0356,0,0,0,0,0,0,0.0038,0.0043,0.0055,0.0034,0.0055,0.0097,0.0094,0.0117,0.0155,0.0158,0.0234,0.0253,0.0283,0.0322,0.0336,0.0362,0.0402,0.0401,0.0338,0.0327,0.0318,0.0336,0.0405,0,0,0,0,0,0.0023,0.0003,0.0027,0.0011,0.0012,0.0049,0.0059,0.0083,0.0119,0.0135,0.019,0.0238,0.0281,0.0305,0.0354,0.0374,0.0425,0.0369,0.036,0.0352,0.0374,0.0405,0.0402,0.0439,0.0439,0.0439,0,0,0.0013,0.0009,0.0002,0.0004,0.002,0.0023,0.0056,0.006,0.0074,0.0148,0.0177,0.0217,0.0279,0.0304,0.0318,0.0336,0.0365,0.0347,0.034,0.0368,0.0401,0.0398,0.0395,0.0436,0.0437,0.0437,0,0,-0.003,-0.0029,-0.0062,-0.0046,-0.0036,-0.0009,-0.0017,0.0017,0.004,0.0067,0.012,0.0147,0.021,0.0254,0.0282,0.0248,0.0318,0.0245,0.0217,0.0244,0.0243,0.0242,0.0296,0.03,0.0236,0.0236,0.0235,0,-0.0045,-0.0074,-0.0065,-0.0083,-0.0064,-0.0032,-0.0037,-0.0013,0.0035,0.0062,0.0063,0.0151,0.0191,0.0237,0.0217,0.0231,0.0267,0.0257,0.0235,0.0235,0.0236,0.0292,0.0298,0.0231,0.0232,0.0232,0.0232,0,-0.011,-0.0114,-0.0132,-0.014,-0.0121,-0.0121,-0.0082,-0.0061,-0.0037,-0.0001,0.0042,0.009,0.015,0.0141,0.0173,0.019,0.0221,0.0224,0.0269,0.0227,0.0288,0.0296,0.0225,0.0226,0.0228,0.0229,0,0,-0.0198,-0.0179,-0.0189,-0.017,-0.0143,-0.0131,-0.0109,-0.0068,-0.0038,-0.0014,0.0028,0.0063,0.0093,0.0126,0.0157,0.0167,0.0184,0.0188,0.0191,0.0252,0.0267,0.025,0.0259,0.0178,0.0179,0.0179,0.0307,0,-0.025,-0.0279,-0.0252,-0.0242,-0.0238,-0.0172,-0.0144,-0.0096,-0.0052,-0.0005,0.0035,0.0082,0.0085,0.0109,0.0119,0.0179,0.0202,0.0152,0.0291,0.0296,0.0294,0.0266,0.0205,0.031,0.0315,0.0317,0.0318,0,-0.0345,-0.033,-0.034,-0.0258,-0.0252,-0.0238,-0.016,-0.0123,-0.0045,-0.0009,0.004,0.0086,0.0129,0.012,0.0206,0.0173,0.022,0.0252,0.0257,0.0285,0.0294,0.0352,0.0325,0.0332,0.0331,0.033,0.0329,0,-0.0431,-0.0395,-0.0394,-0.0372,-0.0288,-0.0264,-0.0216,-0.0135,-0.0078,-0.0005,0.0036,0.0097,0.014,0.0187,0.0262,0.0234,0.036,0.0333,0.0373,0.0374,0.0376,0.0375,0.0399,0.0399,0.0398,0.0398,0.0397,0,-0.0513,-0.0507,-0.043,-0.0426,-0.0383,-0.031,-0.0253,-0.0197,-0.0099,-0.0022,0.0029,0.01,0.0154,0.0238,0.0284,0.0366,0.0386,0.0383,0.0402,0.0342,0.0336,0.0399,0.0397,0.0403,0.0402,0.0401,0.04,0,-0.0626,-0.0587,-0.0556,-0.0463,-0.043,-0.0402,-0.0271,-0.0206,-0.0132,-0.0028,-0.0002,0.0112,0.0213,0.0289,0.0391,0.0403,0.0476,0.0508,0.0447,0.0453,0.0468,0.046,0.0548,0.0548,0.0548,0.0549,0.0549,0,-0.0693,-0.0694,-0.0596,-0.055,-0.0509,-0.0434,-0.0358,-0.0246,-0.0162,-0.0005,0.0049,0.0167,0.0257,0.0398,0.0421,0.0501,0.0541,0.0521,0.0437,0.0472,0.0482,0.0473,0.0466,0.0417,0.0416,0.0415,0.0415,0,-0.077,-0.0741,-0.0698,-0.0611,-0.0535,-0.0428,-0.0319,-0.0267,-0.011,-0.0036,0.0115,0.0191,0.0308,0.0357,0.0433,0.0468,0.0486,0.0506,0.058,0.037,0.0354,0.0361,0.0357,0.0408,0.0409,0.0409,0.041,0.041,-0.0811,-0.08,-0.0731,-0.0647,-0.0543,-0.0419,-0.0347,-0.0244,-0.0139,-0.0037,0.0083,0.0174,0.0243,0.0288,0.037,0.0438,0.0431,0.0449,0.045,0.0452,0.0395,0.0378,0.043,0.043,0.0431,0.0431,0.0432,0,-0.0841,-0.081,-0.0745,-0.0629,-0.0514,-0.0444,-0.0294,-0.0243,-0.0158,-0.0088,-0.0008,0.007,0.0123,0.0252,0.0312,0.0348,0.0325,0.0398,0.0362,0.0367,0.0371,0.0309,0.0322,0.0323,0.0323,0.0323,0,0,-0.0849,-0.0816,-0.0781,-0.0617,-0.0515,-0.036,-0.0277,-0.0245,-0.0192,-0.0161,-0.0098,-0.0094,0.01,0.0121,0.0191,0.0276,0.0303,0.0274,0.0347,0.0296,0.03,0.0378,0.0285,0,0,0,0,0]}],[{"header":{"parameterUnit":"m.s-1","parameterCategory":2,"la1":30.2991,"la2":30.254,"lo1":-89.0895,"lo2":-89.0444,"dy":0.0017,"dx":0.0017,"nx":28,"ny":28,"refTime":"2024-11-26T03:00:00:Z","depth":"4","parameterNumber":2,"parameterNumberName":"U-component_of_CURRENTS"},"data":[0,0,0,0,0,0,0,0,0,0,0,0,0,0,0,0,0,0,0,0,0,0,0,0,0,0,0,0,0,0,0,0,0,0,0,0,0,0,0,0,0,0,0,0,0,0,0,0,0,0,0,0,0,0,0,0,0,0,-0.0272,-0.0271,0,-0.0318,-0.032,-0.0321,-0.0356,-0.0355,-0.0355,-0.0354,-0.0456,-0.0459,-0.0462,0,0,0,0,0,0,0,0,0,0,0,0,0,-0.0273,-0.0273,-0.0272,-0.0271,-0.0271,-0.0318,-0.032,-0.0321,-0.0356,-0.0355,-0.0355,-0.0354,-0.0455,-0.0458,-0.0462,0,0,0,0,0,0,0,0,0,0,0,0,0,-0.03,-0.0273,-0.0272,-0.0287,-0.0288,-0.0318,-0.032,-0.0322,-0.0356,-0.0355,-0.0354,-0.0354,-0.0453,-0.0458,-0.0463,-0.051,0,0,-0.0478,-0.048,0,0,0,0,0,0,0,0,-0.0299,-0.0302,-0.0285,-0.0286,-0.0287,-0.0322,-0.0357,-0.0384,-0.0356,-0.034,-0.0354,-0.0353,-0.041,-0.0419,-0.0442,-0.0515,-0.0519,-0.0478,-0.0481,-0.0483,-0.0484,0,0,0,0,0,0,0,-0.0297,-0.03,-0.03,-0.0284,-0.0286,-0.0311,-0.0315,-0.0363,-0.0388,-0.0342,-0.0342,-0.0332,-0.0413,-0.0438,-0.0445,-0.0521,-0.0478,-0.0482,-0.0485,-0.0487,-0.0753,-0.0757,0,0,0,0,0,0,-0.0269,-0.0298,-0.0298,-0.03,-0.028,-0.0311,-0.0316,-0.0319,-0.0387,-0.0393,-0.0333,-0.0333,-0.043,-0.0439,-0.0449,-0.0617,-0.0483,-0.0488,-0.049,-0.0749,-0.0754,-0.0759,0,0,0,0,0,0,-0.027,-0.027,-0.0296,-0.0292,-0.0295,-0.031,-0.0316,-0.0321,-0.0374,-0.0377,-0.0386,-0.0382,-0.0429,-0.0442,-0.0529,-0.0617,-0.049,-0.0494,-0.0744,-0.0751,-0.0756,-0.0884,0,0,0,0,0,0,-0.027,-0.027,-0.0276,-0.029,-0.0294,-0.0317,-0.0316,-0.0322,-0.0362,-0.0365,-0.0423,-0.0429,-0.043,-0.0522,-0.0534,-0.0621,-0.0498,-0.0739,-0.0747,-0.0754,-0.0874,-0.0894,-0.091,0,0,0,0,0,-0.027,-0.0256,-0.0277,-0.0276,-0.0299,-0.0317,-0.0324,-0.0337,-0.0366,-0.0387,-0.0447,-0.0429,-0.058,-0.0529,-0.0542,-0.0633,-0.0735,-0.0745,-0.0754,-0.0866,-0.089,-0.091,0,0,0,0,0,0,-0.0252,-0.0259,-0.0281,-0.027,-0.03,-0.0319,-0.0333,-0.0364,-0.0433,-0.0447,-0.0476,-0.0488,-0.0603,-0.0602,-0.0545,-0.0735,-0.0658,-0.0671,-0.074,-0.0762,-0.0779,-0.0745,-0.0502,0,0,0,0,0,-0.0254,-0.0256,-0.0275,-0.0275,-0.0293,-0.0335,-0.0352,-0.0367,-0.0414,-0.0445,-0.0501,-0.0569,-0.0651,-0.0689,-0.0744,-0.0842,-0.0791,-0.0912,-0.093,-0.0945,-0.0929,-0.1005,-0.1028,-0.0789,-0.0789,-0.0789,0,0,-0.025,-0.025,-0.0256,-0.0274,-0.0307,-0.0333,-0.0347,-0.0375,-0.0409,-0.0446,-0.0545,-0.0634,-0.0692,-0.0807,-0.0858,-0.0816,-0.0968,-0.0957,-0.0969,-0.0944,-0.1017,-0.104,-0.106,-0.0796,-0.0795,-0.0794,0,0,-0.0226,-0.0253,-0.025,-0.0283,-0.0314,-0.034,-0.036,-0.042,-0.0462,-0.0581,-0.062,-0.0737,-0.0883,-0.0915,-0.096,-0.1105,-0.1065,-0.1171,-0.1233,-0.1309,-0.1328,-0.1345,-0.1215,-0.1219,-0.1176,-0.1177,-0.1177,0,-0.0231,-0.0229,-0.0254,-0.0269,-0.0298,-0.0352,-0.0378,-0.0425,-0.0514,-0.0569,-0.0627,-0.0883,-0.0921,-0.1046,-0.1119,-0.1139,-0.1137,-0.1145,-0.133,-0.1346,-0.136,-0.1224,-0.1227,-0.1184,-0.1183,-0.1182,-0.1182,0,-0.02,-0.0229,-0.0237,-0.0282,-0.0314,-0.0348,-0.0405,-0.0464,-0.0571,-0.0651,-0.0843,-0.0954,-0.1107,-0.1165,-0.1204,-0.135,-0.1291,-0.1345,-0.1265,-0.1392,-0.1239,-0.124,-0.1194,-0.1192,-0.119,-0.1188,0,0,-0.0177,-0.0209,-0.0229,-0.0252,-0.0332,-0.0347,-0.0415,-0.0498,-0.0555,-0.0746,-0.0875,-0.1082,-0.1206,-0.1262,-0.1343,-0.1419,-0.1495,-0.1463,-0.1464,-0.1308,-0.156,-0.1396,-0.1378,-0.1646,-0.1649,-0.1652,-0.1374,0,-0.0175,-0.0185,-0.0212,-0.0265,-0.0293,-0.0362,-0.0421,-0.0505,-0.0627,-0.0762,-0.0942,-0.1116,-0.1224,-0.135,-0.1461,-0.1519,-0.1524,-0.1555,-0.148,-0.1471,-0.1297,-0.1386,-0.1663,-0.1374,-0.1374,-0.1374,-0.1374,0,-0.0161,-0.0174,-0.0206,-0.0262,-0.0284,-0.0324,-0.0423,-0.0484,-0.0654,-0.0768,-0.0994,-0.1158,-0.1338,-0.1421,-0.1552,-0.1606,-0.1589,-0.1591,-0.1583,-0.1388,-0.1315,-0.1248,-0.1374,-0.1374,-0.1374,-0.1374,-0.1374,0,-0.0124,-0.0179,-0.0198,-0.0227,-0.0296,-0.033,-0.0386,-0.0515,-0.0584,-0.0793,-0.0898,-0.1159,-0.129,-0.1424,-0.1452,-0.1573,-0.1486,-0.1629,-0.1396,-0.1373,-0.1539,-0.1525,-0.1647,-0.1648,-0.1648,-0.1649,-0.165,0,-0.0111,-0.0132,-0.0187,-0.02,-0.0255,-0.0317,-0.039,-0.0469,-0.0617,-0.0682,-0.0935,-0.1007,-0.1336,-0.1348,-0.1405,-0.1342,-0.1436,-0.1379,-0.1336,-0.1582,-0.1579,-0.153,-0.152,-0.1638,-0.1641,-0.1643,-0.1645,0,-0.0078,-0.0102,-0.0125,-0.0197,-0.0237,-0.0282,-0.0392,-0.0437,-0.0563,-0.0648,-0.0737,-0.0937,-0.0981,-0.1081,-0.1162,-0.1208,-0.1173,-0.1068,-0.1117,-0.1083,-0.1018,-0.1018,-0.0921,-0.0914,-0.0908,-0.0903,-0.0898,0,-0.0052,-0.0072,-0.0133,-0.0151,-0.0192,-0.0267,-0.032,-0.0438,-0.0467,-0.054,-0.0564,-0.0651,-0.0754,-0.0673,-0.0821,-0.0809,-0.0828,-0.0761,-0.1138,-0.0996,-0.0965,-0.0975,-0.0983,-0.0889,-0.0887,-0.0886,-0.0884,0,-0.0045,-0.0071,-0.0089,-0.0137,-0.018,-0.0211,-0.0273,-0.0295,-0.0369,-0.0454,-0.0429,-0.0499,-0.0462,-0.0595,-0.0499,-0.0523,-0.0859,-0.0703,-0.0724,-0.1079,-0.0957,-0.0933,-0.0949,-0.0863,-0.0866,-0.0868,-0.0869,0,-0.0055,-0.0068,-0.0099,-0.0139,-0.0158,-0.0154,-0.0191,-0.0202,-0.0257,-0.0331,-0.0262,-0.0306,-0.0379,-0.0416,-0.0328,-0.0352,-0.0507,-0.0614,-0.0644,-0.0668,-0.0743,-0.0561,-0.0294,0,0,0,0,0,-0.008,-0.0089,-0.0108,-0.0118,-0.011,-0.0124,-0.0156,-0.018,-0.0211,-0.0181,-0.0244,-0.0195,-0.0224,-0.0249,-0.0257,-0.029,-0.0507,-0.0302,-0.0646,-0.0748,-0.0772,-0.09,0,0,0,0,0,0,-0.0089,-0.0103,-0.0109,-0.0092,-0.0076,-0.0075,-0.0081,-0.01,-0.0094,-0.0127,-0.0143,-0.0186,-0.0215,-0.0198,-0.0246,-0.0256,-0.0478,-0.0329,-0.033,-0.0734,-0.0756,-0.0775,-0.0916,0,0,0,0,0]},{"header":{"parameterUnit":"m.s-1","parameterCategory":2,"la1":30.2991,"la2":30.254,"lo1":-89.0895,"lo2":-89.0444,"dy":0.0017,"dx":0.0017,"nx":28,"ny":28,"refTime":"2024-11-26T03:00:00:Z","depth":"4","parameterNumber":3,"parameterNumberName":"V-component_of_CURRENTS"},"data":[0,0,0,0,0,0,0,0,0,0,0,0,0,0,0,0,0,0,0,0,0,0,0,0,0,0,0,0,0,0,0,0,0,0,0,0,0,0,0,0,0,0,0,0,0,0,0,0,0,0,0,0,0,0,0,0,0,0,-0.0673,-0.0673,0,-0.073,-0.073,-0.0731,-0.0747,-0.0747,-0.0746,-0.0746,-0.075,-0.075,-0.0751,0,0,0,0,0,0,0,0,0,0,0,0,0,-0.058,-0.0581,-0.0673,-0.0674,-0.0674,-0.0729,-0.073,-0.0731,-0.0747,-0.0747,-0.0746,-0.0746,-0.075,-0.075,-0.0751,0,0,0,0,0,0,0,0,0,0,0,0,0,-0.0628,-0.0582,-0.0673,-0.0688,-0.069,-0.0729,-0.073,-0.0731,-0.0747,-0.0747,-0.0746,-0.0746,-0.075,-0.075,-0.0751,-0.0767,0,0,-0.0753,-0.0753,0,0,0,0,0,0,0,0,-0.0625,-0.0631,-0.0685,-0.0687,-0.0689,-0.073,-0.0699,-0.074,-0.0747,-0.0727,-0.0746,-0.0745,-0.0738,-0.074,-0.0754,-0.0768,-0.0768,-0.0753,-0.0754,-0.0754,-0.0754,0,0,0,0,0,0,0,-0.0622,-0.0629,-0.0696,-0.0686,-0.0688,-0.0692,-0.0699,-0.0707,-0.0735,-0.0728,-0.0729,-0.0734,-0.0739,-0.0753,-0.0754,-0.0768,-0.0753,-0.0754,-0.0754,-0.0755,-0.0825,-0.0827,0,0,0,0,0,0,-0.0614,-0.0626,-0.0695,-0.0698,-0.0654,-0.0695,-0.0702,-0.0718,-0.0736,-0.0738,-0.0735,-0.0735,-0.0752,-0.0753,-0.0754,-0.0807,-0.0754,-0.0755,-0.0755,-0.0824,-0.0826,-0.0827,0,0,0,0,0,0,-0.0612,-0.062,-0.0692,-0.0661,-0.0671,-0.0697,-0.0715,-0.072,-0.0765,-0.0741,-0.0742,-0.0779,-0.0752,-0.0753,-0.0797,-0.0805,-0.0755,-0.0756,-0.0822,-0.0824,-0.0826,-0.0891,0,0,0,0,0,0,-0.0609,-0.0619,-0.0642,-0.0661,-0.0672,-0.0734,-0.0716,-0.0721,-0.0766,-0.0768,-0.0779,-0.0777,-0.0751,-0.0797,-0.0798,-0.0805,-0.0756,-0.082,-0.0823,-0.0826,-0.0887,-0.0895,-0.0902,0,0,0,0,0,-0.0606,-0.0629,-0.0643,-0.0651,-0.0699,-0.0736,-0.0743,-0.0758,-0.0769,-0.0797,-0.0813,-0.0778,-0.0813,-0.08,-0.0801,-0.0808,-0.0819,-0.0822,-0.0825,-0.0883,-0.0893,-0.0901,0,0,0,0,0,0,-0.0598,-0.0634,-0.0648,-0.0683,-0.0718,-0.0738,-0.0769,-0.0785,-0.0823,-0.0831,-0.0814,-0.0814,-0.0858,-0.0832,-0.0818,-0.0837,-0.0804,-0.0807,-0.0847,-0.0856,-0.0864,-0.0848,-0.0757,0,0,0,0,0,-0.0608,-0.0646,-0.0673,-0.071,-0.073,-0.0762,-0.0786,-0.0799,-0.0826,-0.0844,-0.0861,-0.0865,-0.0868,-0.0865,-0.0877,-0.0892,-0.0848,-0.0893,-0.09,-0.0907,-0.0896,-0.0824,-0.0822,-0.0838,-0.0838,-0.0838,0,0,-0.062,-0.0645,-0.0668,-0.0714,-0.0746,-0.0779,-0.0777,-0.0824,-0.0852,-0.0837,-0.0904,-0.0914,-0.0888,-0.091,-0.0921,-0.0887,-0.0891,-0.0911,-0.0916,-0.0901,-0.0827,-0.0824,-0.0823,-0.084,-0.084,-0.0839,0,0,-0.0648,-0.0686,-0.072,-0.0753,-0.0802,-0.0818,-0.0841,-0.089,-0.0914,-0.0979,-0.0964,-0.0991,-0.1016,-0.0986,-0.0971,-0.103,-0.0952,-0.1022,-0.1022,-0.0954,-0.0951,-0.0947,-0.0932,-0.0926,-0.1,-0.1001,-0.1001,0,-0.0657,-0.0706,-0.0738,-0.0775,-0.0806,-0.0841,-0.0879,-0.0907,-0.0969,-0.0992,-0.1012,-0.1064,-0.1049,-0.1037,-0.1037,-0.1046,-0.0996,-0.0989,-0.096,-0.0955,-0.0951,-0.0935,-0.0928,-0.1004,-0.1004,-0.1003,-0.1003,0,-0.0694,-0.075,-0.0778,-0.0837,-0.0872,-0.0919,-0.095,-0.0994,-0.1042,-0.1074,-0.1132,-0.1136,-0.1146,-0.1143,-0.1099,-0.1055,-0.1033,-0.0996,-0.093,-0.0952,-0.0936,-0.0928,-0.1009,-0.1008,-0.1007,-0.1006,0,0,-0.0689,-0.0781,-0.0803,-0.0829,-0.091,-0.0928,-0.0986,-0.1035,-0.1054,-0.1143,-0.1185,-0.1198,-0.1208,-0.1188,-0.1149,-0.1075,-0.1015,-0.0999,-0.0994,-0.0974,-0.0878,-0.0814,-0.0799,-0.0943,-0.0941,-0.094,-0.0895,0,-0.0717,-0.0779,-0.0832,-0.0902,-0.0931,-0.0981,-0.1022,-0.1069,-0.1116,-0.1167,-0.1197,-0.1233,-0.1217,-0.1209,-0.1145,-0.1033,-0.0986,-0.1032,-0.0868,-0.0865,-0.0793,-0.0784,-0.0933,-0.0888,-0.0886,-0.0885,-0.0884,0,-0.0742,-0.0778,-0.0847,-0.0909,-0.0928,-0.0975,-0.1022,-0.1067,-0.1134,-0.1171,-0.1225,-0.1249,-0.121,-0.1188,-0.1045,-0.1059,-0.0975,-0.0904,-0.0899,-0.0801,-0.0782,-0.0851,-0.0867,-0.0869,-0.087,-0.0871,-0.0872,0,-0.0692,-0.079,-0.0838,-0.0868,-0.0944,-0.0979,-0.1023,-0.1084,-0.1104,-0.1179,-0.1192,-0.1207,-0.1179,-0.1094,-0.0973,-0.098,-0.0803,-0.0805,-0.0703,-0.0701,-0.0744,-0.0747,-0.0713,-0.0713,-0.0713,-0.0714,-0.0714,0,-0.0686,-0.0728,-0.0822,-0.084,-0.0888,-0.0957,-0.0991,-0.1042,-0.1099,-0.1088,-0.1188,-0.1143,-0.1128,-0.1045,-0.0965,-0.0797,-0.0804,-0.0696,-0.0664,-0.0782,-0.079,-0.074,-0.0744,-0.0712,-0.0712,-0.0713,-0.0713,0,-0.0637,-0.0704,-0.0744,-0.0829,-0.0871,-0.0901,-0.0973,-0.0972,-0.104,-0.1023,-0.1045,-0.1064,-0.0949,-0.0947,-0.079,-0.0748,-0.0628,-0.0576,-0.0736,-0.0716,-0.0593,-0.0601,-0.0475,-0.0472,-0.0469,-0.0467,-0.0465,0,-0.0617,-0.0646,-0.0727,-0.0743,-0.0796,-0.0849,-0.0877,-0.0955,-0.0929,-0.0918,-0.0883,-0.0843,-0.083,-0.0641,-0.061,-0.0544,-0.0519,-0.0499,-0.0529,-0.0577,-0.0559,-0.0571,-0.0583,-0.0461,-0.046,-0.0459,-0.0459,0,-0.0579,-0.0619,-0.0641,-0.0684,-0.0722,-0.0744,-0.0775,-0.0758,-0.0787,-0.0807,-0.0721,-0.0702,-0.0592,-0.0554,-0.0522,-0.0452,-0.0535,-0.0472,-0.0478,-0.0506,-0.0559,-0.0546,-0.0561,-0.045,-0.0451,-0.0452,-0.0452,0,-0.0556,-0.0556,-0.0597,-0.0632,-0.0661,-0.067,-0.0683,-0.0651,-0.0664,-0.0652,-0.0573,-0.0558,-0.054,-0.0495,-0.0423,-0.0403,-0.0397,-0.0396,-0.0406,-0.0416,-0.0412,-0.0472,-0.029,0,0,0,0,0,-0.0539,-0.0544,-0.0548,-0.0581,-0.0591,-0.0628,-0.0631,-0.0627,-0.0614,-0.0538,-0.0578,-0.0484,-0.0429,-0.0413,-0.0378,-0.0376,-0.04,-0.033,-0.0406,-0.0399,-0.041,-0.0408,0,0,0,0,0,0,-0.0531,-0.0536,-0.0537,-0.0547,-0.0557,-0.0583,-0.0593,-0.0578,-0.0538,-0.0515,-0.0498,-0.0457,-0.0425,-0.0459,-0.0376,-0.0365,-0.0401,-0.0306,-0.0304,-0.0393,-0.0403,-0.0411,-0.0414,0,0,0,0,0]}]]